Spirit of St Louis, MO

12:25 AM CDT on March 27, 2017 (GMT -0500)
Spirit Of Saint Louis

Weather History for KSUS - October, 2013

Change the Weather History Date:

Wednesday, October 2, 2013

  Actual Average Record
Temperature  
Mean Temperature 73 °F -  
Max Temperature 84 °F 71 °F 93 °F (2006)
Min Temperature 62 °F 45 °F 33 °F (2003)
Cooling Degree Days 8    
Growing Degree Days 23 (Base 50)    
Moisture  
Dew Point 65 °F    
Average Humidity 89    
Maximum Humidity 100    
Minimum Humidity 53    
Precipitation  
Precipitation 0.16 in - - ()
Sea Level Pressure  
Sea Level Pressure 30.00 in    
Wind  
Wind Speed 1 mph (SSW)    
Max Wind Speed 10 mph    
Max Gust Speed 17 mph    
Visibility 5 miles    
Events Fog , Rain    
Averages and records for this station are not official NWS values.
T = Trace of Precipitation, MM = Missing Value Source: NWS Daily Summary

Daily Weather History Graph

Daily Weather History Graph

Search for Another Location

Airport or City:

Trip Planner

Search our weather history database for the weather conditions in past years. The results will help you decide how hot, cold, wet, or windy it might be!

Date:

Astronomy

Oct. 02, 2013 Rise Set
Actual Time 6:59 AM CDT 6:43 PM CDT
Civil Twilight 6:33 AM CDT 7:09 PM CDT
Nautical Twilight 6:02 AM CDT 7:40 PM CDT
Astronomical Twilight 5:31 AM CDT 8:11 PM CDT
Moon 4:34 AM CDT (10/2) 5:18 PM CDT (10/2)
Length of Visible Light 12h 36m
Length of Day
11h 43m
Waning Crescent, 6% of the Moon is Illuminated
Oct 2
Waning Crescent
Oct 4
New
Oct 11
First Quarter
Oct 18
Full
Oct 26
Last Quarter

Hourly Weather History & Observations

Time (CDT) Temp. Heat Index Dew Point Humidity Pressure Visibility Wind Dir Wind Speed Gust Speed Precip Events Conditions
12:54 AM 68.0 °F - 66.0 °F 93% 30.00 in 7.0 mi Calm Calm - N/A   Scattered Clouds
1:54 AM 66.0 °F - 64.9 °F 96% 30.00 in 2.0 mi Calm Calm - N/A   Clear
2:01 AM 66.2 °F - 64.4 °F 94% 30.02 in 1.5 mi Calm Calm - N/A   Partly Cloudy
2:10 AM 66.2 °F - 64.4 °F 94% 30.02 in 2.0 mi Calm Calm - N/A   Partly Cloudy
2:25 AM 64.4 °F - 64.4 °F 100% 30.02 in 3.0 mi Calm Calm - N/A   Scattered Clouds
2:28 AM 64.4 °F - 64.4 °F 100% 30.02 in 1.5 mi Calm Calm - N/A   Scattered Clouds
2:35 AM 64.4 °F - 64.4 °F 100% 30.02 in 0.8 mi Calm Calm - N/A   Scattered Clouds
2:54 AM 64.9 °F - 64.0 °F 97% 30.00 in 0.5 mi Calm Calm - N/A Fog Fog
3:03 AM 64.4 °F - 62.6 °F 94% 30.02 in 2.5 mi Calm Calm - N/A   Mostly Cloudy
3:13 AM 64.4 °F - 64.4 °F 100% 30.01 in 0.8 mi Calm Calm - N/A   Mostly Cloudy
3:40 AM 64.4 °F - 62.6 °F 94% 30.02 in 1.8 mi Calm Calm - N/A   Scattered Clouds
3:48 AM 64.4 °F - 62.6 °F 94% 30.02 in 0.8 mi Calm Calm - N/A   Mist
3:54 AM 64.0 °F - 63.0 °F 96% 30.00 in 0.5 mi Calm Calm - N/A Fog Fog
4:10 AM 64.4 °F - 64.4 °F 100% 30.02 in 1.2 mi Calm Calm - N/A   Partly Cloudy
4:12 AM 64.4 °F - 62.6 °F 94% 30.02 in 4.0 mi Calm Calm - N/A   Partly Cloudy
4:20 AM 64.4 °F - 62.6 °F 94% 30.02 in 1.2 mi Calm Calm - N/A   Partly Cloudy
4:22 AM 64.4 °F - 64.4 °F 100% 30.02 in 0.8 mi Calm Calm - N/A   Mist
4:39 AM 62.6 °F - 62.6 °F 100% 30.02 in 0.2 mi Calm Calm - N/A Fog Fog
4:52 AM 62.6 °F - 60.8 °F 94% 30.02 in 0.2 mi Calm Calm - N/A Fog Fog
4:54 AM 62.1 °F - 62.1 °F 100% 30.00 in 0.2 mi Calm Calm - N/A Fog Fog
5:20 AM 62.6 °F - 62.6 °F 100% 30.02 in 0.2 mi Calm Calm - N/A Fog Fog
5:41 AM 64.4 °F - 62.6 °F 94% 30.02 in 0.2 mi Calm Calm - N/A Fog Fog
5:46 AM 62.6 °F - 62.6 °F 100% 30.03 in 2.0 mi Calm Calm - N/A   Overcast
5:54 AM 64.9 °F - 64.0 °F 97% 30.01 in 2.0 mi Calm Calm - 0.00 in Rain Light Rain
6:27 AM 66.2 °F - 66.2 °F 100% 30.03 in 3.0 mi North 3.5 mph - 0.16 in Rain Rain
6:54 AM 66.9 °F - 66.0 °F 97% 30.01 in 5.0 mi Calm Calm - 0.16 in   Overcast
7:54 AM 66.9 °F - 66.0 °F 97% 30.04 in 5.0 mi Calm Calm - N/A   Scattered Clouds
8:54 AM 72.0 °F - 69.1 °F 91% 30.04 in 5.0 mi South 3.5 mph - N/A   Mostly Cloudy
9:54 AM 75.0 °F - 69.1 °F 82% 30.04 in 10.0 mi WSW 3.5 mph - N/A   Clear
10:54 AM 79.0 °F - 70.0 °F 74% 30.02 in 10.0 mi SSW 4.6 mph - N/A   Mostly Cloudy
11:54 AM 82.0 °F 85.5 °F 69.1 °F 65% 30.01 in 10.0 mi WSW 4.6 mph - N/A   Mostly Cloudy
12:54 PM 82.0 °F 84.9 °F 68.0 °F 62% 29.99 in 10.0 mi SW 5.8 mph - N/A   Mostly Cloudy
1:54 PM 82.0 °F 84.9 °F 68.0 °F 62% 29.97 in 10.0 mi Calm Calm - N/A   Mostly Cloudy
2:54 PM 84.0 °F 86.3 °F 66.0 °F 55% 29.95 in 10.0 mi SSE 5.8 mph - N/A   Mostly Cloudy
3:54 PM 84.0 °F 85.8 °F 64.9 °F 53% 29.93 in 10.0 mi Calm Calm - N/A   Mostly Cloudy
4:54 PM 79.0 °F - 66.9 °F 66% 29.94 in 10.0 mi South 5.8 mph 17.3 mph N/A   Mostly Cloudy
5:54 PM 75.9 °F - 66.0 °F 71% 29.95 in 10.0 mi South 10.4 mph - N/A   Mostly Cloudy
6:54 PM 75.0 °F - 66.0 °F 73% 29.95 in 10.0 mi Calm Calm - N/A   Mostly Cloudy
7:54 PM 72.0 °F - 66.9 °F 84% 29.95 in 10.0 mi SE 3.5 mph - N/A   Clear
8:54 PM 72.0 °F - 68.0 °F 87% 29.96 in 10.0 mi Variable 4.6 mph - N/A   Clear
9:54 PM 71.1 °F - 68.0 °F 90% 29.96 in 10.0 mi Variable 3.5 mph - N/A   Clear
10:54 PM 71.1 °F - 68.0 °F 90% 29.96 in 10.0 mi South 3.5 mph - N/A   Scattered Clouds
11:54 PM 71.1 °F - 68.0 °F 90% 29.95 in 10.0 mi South 4.6 mph - N/A   Scattered Clouds